FLOCK 2P-7 (41615 NORAD) Tracking and Keplerian Element Data

This shows tracking and keplerian element data for the satellite.

Feedback or suggestion? Click here.




ElementValue
Catalog41615
NameFLOCK 2P-7
Epoch Orbit9160
Epoch Day45.85135333
Epoch Year2018
RAAN111.7059
Inclination97.4318
Eccentricity0.0009369
Argument of Perigee318.9584
Mean Anonmoly41.0947
Mean Motion15.2370737
Decay Rate2.753E-05
L11 41615U 16040S 18045.85135333 .00002753 00000-0 11755-3 0 9996
L22 41615 97.4318 111.7059 0009369 318.9584 41.0947 15.23707370 91606

Live tracking and technical data element details for FLOCK 2P-7 (NORAD 41615). FLOCK 2P-7 can be tracked NOW for your location showing map with azimuth and elevation plus other details from your city location.

Track the satellite on the map from your city or location and see movement details for azimuth, elevation, latitude, longitude, range, height, and movement on the map or in text.







IsCatalogInMostPopularTable: catalog: 41615, numindb: 114
Update: records affected: 1



GetName: 41615 FLOCK 2P-7

Hit Count: updated at: Wed, 14 Nov 2018 11:33:43 GMT